TimeAKDT,TemperatureF,Dew PointF,Humidity,Sea Level PressureIn,VisibilityMPH,Wind Direction,Wind SpeedMPH,Gust SpeedMPH,PrecipitationIn,Events,Conditions,WindDirDegrees,DateUTC
12:53 AM,32.0,24.1,73,29.93,10.0,NNW,12.7,-,N/A,,Mostly Cloudy,330,2012-10-12 08:53:00
1:53 AM,33.1,26.1,75,29.92,10.0,NNW,15.0,-,N/A,,Mostly Cloudy,340,2012-10-12 09:53:00
2:53 AM,33.1,25.0,72,29.90,10.0,NNW,17.3,-,N/A,,Mostly Cloudy,340,2012-10-12 10:53:00
3:53 AM,32.0,25.0,75,29.90,10.0,NNW,17.3,-,N/A,,Mostly Cloudy,340,2012-10-12 11:53:00
4:53 AM,32.0,21.9,66,29.89,10.0,North,18.4,-,N/A,,Mostly Cloudy,350,2012-10-12 12:53:00
5:53 AM,32.0,21.9,66,29.88,10.0,North,17.3,-,N/A,,Mostly Cloudy,350,2012-10-12 13:53:00
6:53 AM,30.9,19.9,64,29.87,10.0,North,19.6,-,N/A,,Mostly Cloudy,360,2012-10-12 14:53:00
7:53 AM,30.0,19.9,66,29.87,10.0,NNW,18.4,-,N/A,,Clear,340,2012-10-12 15:53:00
8:53 AM,30.0,16.0,56,29.87,10.0,North,18.4,25.3,N/A,,Clear,10,2012-10-12 16:53:00
9:53 AM,30.0,17.1,59,29.87,10.0,North,19.6,27.6,N/A,,Clear,360,2012-10-12 17:53:00
10:53 AM,30.9,17.1,57,29.86,10.0,North,21.9,25.3,N/A,,Partly Cloudy,360,2012-10-12 18:53:00
11:53 AM,32.0,17.1,54,29.86,10.0,North,20.7,28.8,N/A,,Clear,10,2012-10-12 19:53:00
12:53 PM,32.0,19.0,59,29.86,10.0,North,20.7,26.5,N/A,,Clear,10,2012-10-12 20:53:00
1:53 PM,33.1,19.0,56,29.85,10.0,North,24.2,-,N/A,,Clear,10,2012-10-12 21:53:00
2:53 PM,33.1,18.0,54,29.85,10.0,North,25.3,34.5,N/A,,Clear,10,2012-10-12 22:53:00
3:53 PM,33.1,18.0,54,29.84,10.0,North,19.6,29.9,N/A,,Clear,10,2012-10-12 23:53:00
4:53 PM,33.1,18.0,54,29.83,9.0,North,21.9,-,N/A,,Clear,360,2012-10-13 00:53:00
5:53 PM,33.1,18.0,54,29.82,10.0,North,19.6,-,N/A,,Clear,10,2012-10-13 01:53:00
6:53 PM,32.0,17.1,54,29.81,10.0,North,17.3,-,N/A,,Partly Cloudy,350,2012-10-13 02:53:00
7:53 PM,32.0,18.0,56,29.81,10.0,North,18.4,-,N/A,,Partly Cloudy,10,2012-10-13 03:53:00
8:53 PM,30.9,16.0,54,29.81,10.0,North,20.7,27.6,N/A,,Clear,360,2012-10-13 04:53:00
9:53 PM,30.9,17.1,57,29.81,10.0,North,18.4,-,N/A,,Clear,360,2012-10-13 05:53:00
10:53 PM,30.0,17.1,59,29.81,10.0,North,16.1,21.9,N/A,,Partly Cloudy,360,2012-10-13 06:53:00
11:53 PM,30.9,17.1,57,29.80,10.0,North,19.6,25.3,N/A,,Clear,360,2012-10-13 07:53:00